Regional Weather Roundup
Issued by NWS

Home | Current Version | Previous Version | Text Only | Print | Product List | Glossary On
Versions: 1 2 3 4 5 6 7 8 9 10 11 12 13 14 15 16 17 18 19 20 21 22 23 24 25 26 27 28 29 30 31 32 33 34 35 36 37 38 39 40 41 42 43 44 45 46 47 48 49 50
000
ASUS46 KSEW 271410
RWRWA

WASHINGTON REGIONAL WEATHER ROUNDUP
NATIONAL WEATHER SERVICE SEATTLE WA
600 AM PST THU NOV 27 2014

NOTE:"FAIR" INDICATES FEW OR NO CLOUDS BELOW 12,000 FEET WITH NO
SIGNIFICANT WEATHER AND/OR OBSTRUCTIONS TO VISIBILITY.

WAZ505-507>509-271500-
SEATTLE, TACOMA, EVERETT, AND VICINITY

CITY           SKY/WX    TMP DP  RH WIND       PRES   REMARKS
EVERETT        CLOUDY    52  48  86 S23G32    29.80F FOG
BOEING FIELD   CLOUDY    57  47  69 S13G18    29.84F
RENTON         CLOUDY    56  48  74 S10       29.84F
SEATAC AIRPORT CLOUDY    53  47  79 S14       29.85F
JBLM-MCCHORD   PTCLDY    51  51  99 S15       29.85F
PUYALLUP       NOT AVBL
JBLM-FT LEWIS  DRIZZLE   52  51  97 S16       29.85F
TACOMA NARROWS CLOUDY    53  49  86 S20G28    29.85S
$$

WAZ001-503-506-510-514-515-271500-
NORTH INTERIOR

CITY           SKY/WX    TMP DP  RH WIND       PRES   REMARKS
BELLINGHAM     CLOUDY    54  47  77 SE21G30   29.75F
FRIDAY HARBOR  CLOUDY    52  49  89 SE13      29.77F
EASTSOUND      LGT RAIN  54  50  87 S12       29.74F
PORT ANGELES   CLOUDY    50  49  96 W6        29.76F
NAS WHIDBEY    CLOUDY    56  49  77 SE21G32   29.77F
BURLINGTON     CLOUDY    54  48  82 SE12G17   29.80F
$$

WAZ020-022-039-040-504-511-512-271500-
SOUTHWEST INTERIOR

CITY           SKY/WX    TMP DP  RH WIND       PRES   REMARKS
SHELTON        LGT RAIN  54  53  97 S8        29.82S FOG
OLYMPIA        LGT RAIN  52  49  89 S16       29.86F
CHEHALIS       DRIZZLE   54  52  94 S9G15     29.89F
KELSO          CLOUDY    54  48  82 SE12G26   29.97R
VANCOUVER      CLOUDY    58  45  62 SE6       29.95F
SCAPPOOSE, OR  LGT RAIN  56  49  77 VRB3      29.95R
PORTLAND, OR   CLOUDY    58  47  66 VRB7      29.96F
$$

WAZ021-516-517-271500-
WASHINGTON COAST

CITY           SKY/WX    TMP DP  RH WIND       PRES   REMARKS
FORKS          CLOUDY    54  54 100 S14       29.78S FOG
HOQUIAM        CLOUDY    56  55  97 S22       29.85S
ASTORIA, OR    CLOUDY    57  55  93 SW12G25   29.88F
$$

WAZ019-023-024-040-518-519-271500-
CASCADE MOUNTAINS AND COLUMBIA GORGE

CITY           SKY/WX    TMP DP  RH WIND       PRES   REMARKS
STAMPEDE PASS  NOT AVBL
TROUTDALE, OR  LGT RAIN  60  46  59 S7        29.97S
THE DALLES, OR MOCLDY    54  46  74 VRB3      29.94F
$$

WAZ026-027-041>044-520-521-271500-
EAST SLOPES

CITY           SKY/WX    TMP DP  RH WIND       PRES   REMARKS
OMAK           CLEAR     35  34  96 SW15G25   29.79F WCI  25
WENATCHEE      CLOUDY    37  34  87 SW5       29.88S
ELLENSBURG     FOG       35  32  88 NE3       29.87S VSB 1/2
YAKIMA         CLEAR     56  40  55 SW10      29.85F
$$

WAZ028-034-035-271500-
COLUMBIA BASIN

CITY           SKY/WX    TMP DP  RH WIND       PRES   REMARKS
EPHRATA        FOG       32  32 100 CALM      29.87F VSB 1/4
MOSES LAKE     FOG       35  35 100 CALM      29.88S VSB 1/4
PASCO          CLOUDY    52  44  74 SW12      29.92F
HERMISTON, OR  PTCLDY    47  40  76 SW3       29.92F
$$

WAZ036>038-271500-
NORTHEAST WASHINGTON

CITY           SKY/WX    TMP DP  RH WIND       PRES   REMARKS
SPOKANE GEIGER CLOUDY    49  39  68 SW17      29.86R
SPOKANE FELTS  CLOUDY    51  39  63 CALM      29.88S
FAIRCHILD AFB  CLOUDY    48  39  71 S12G22    29.85F
COEURDALENE,ID CLOUDY    50  39  66 SW9       29.87S
DEER PARK      CLOUDY    43  38  82 S9        29.86F
$$

WAZ029>033-271500-
SOUTHEAST WASHINGTON

CITY           SKY/WX    TMP DP  RH WIND       PRES   REMARKS
PULLMAN        MOCLDY    47  38  71 E7        29.96S
LEWISTON, ID   CLOUDY    45  42  89 CALM      29.96R
WALLA WALLA    CLOUDY    59  38  45 CALM      29.92F
PENDLETON, OR  MOCLDY    59  33  37 SW14      29.93S
$$



USA.gov is the U.S. government's official web portal to all federal, state and local government web resources and services.